Russell, KS

12:23 AM CST on January 17, 2017 (GMT -0600)
Russell Municipal

Weather History for KRSL - August, 2014

Change the Weather History Date:

Friday, August 15, 2014

  Actual Average Record
Temperature  
Mean Temperature 81 °F -  
Max Temperature 93 °F 89 °F 109 °F (1983)
Min Temperature 71 °F 66 °F 53 °F (1979)
Cooling Degree Days 16    
Growing Degree Days 31 (Base 50)    
Moisture  
Dew Point 65 °F    
Average Humidity 60    
Maximum Humidity 87    
Minimum Humidity 37    
Precipitation  
Precipitation 0.07 in - - ()
Sea Level Pressure  
Sea Level Pressure 29.81 in    
Wind  
Wind Speed 11 mph (SSW)    
Max Wind Speed 22 mph    
Max Gust Speed 31 mph    
Visibility 10 miles    
Events Rain , Thunderstorm    
Averages and records for this station are not official NWS values.
T = Trace of Precipitation, MM = Missing Value Source: NWS Daily Summary

Daily Weather History Graph

Daily Weather History Graph

Search for Another Location

Airport or City:

Trip Planner

Search our weather history database for the weather conditions in past years. The results will help you decide how hot, cold, wet, or windy it might be!

Date:

Astronomy

Aug. 15, 2014 Rise Set
Actual Time 6:48 AM CDT 8:29 PM CDT
Civil Twilight 6:20 AM CDT 8:58 PM CDT
Nautical Twilight 5:46 AM CDT 9:32 PM CDT
Astronomical Twilight 5:09 AM CDT 10:08 PM CDT
Moon 11:37 PM CDT (8/15) 12:29 PM CDT (8/15)
Length of Visible Light 14h 37m
Length of Day
13h 40m
Waning Gibbous, 69% of the Moon is Illuminated
Aug 15
Waning Gibbous
Aug 17
Last Quarter
Aug 25
New
Sep 2
First Quarter
Sep 8
Full

Hourly Weather History & Observations

Time (CDT) Temp. Heat Index Dew Point Humidity Pressure Visibility Wind Dir Wind Speed Gust Speed Precip Events Conditions
12:53 AM 78.1 °F - 64.0 °F 62% 29.83 in 10.0 mi SSE 18.4 mph - N/A   Partly Cloudy
1:53 AM 78.1 °F - 64.0 °F 62% 29.82 in 10.0 mi South 16.1 mph - N/A   Mostly Cloudy
2:53 AM 79.0 °F - 63.0 °F 58% 29.84 in 10.0 mi Variable 3.5 mph - N/A   Overcast
3:30 AM 75.9 °F - 64.0 °F 67% 29.93 in 10.0 mi NW 8.1 mph - N/A Thunderstorm Overcast
3:53 AM 75.9 °F - 64.0 °F 67% 29.86 in 10.0 mi WSW 9.2 mph - 0.00 in Rain , Thunderstorm Light Rain
4:29 AM 73.0 °F - 64.9 °F 76% 29.92 in 6.0 mi SW 11.5 mph - 0.05 in Rain , Thunderstorm Light Thunderstorms and Rain
4:48 AM 73.4 °F - 64.4 °F 73% 29.92 in 10.0 mi SW 6.9 mph - 0.05 in Rain Light Rain
4:53 AM 73.0 °F - 64.9 °F 76% 29.86 in 10.0 mi SSW 5.8 mph - 0.05 in Rain Light Rain
5:53 AM 72.0 °F - 66.0 °F 81% 29.84 in 10.0 mi SE 6.9 mph - 0.01 in Rain Light Rain
6:53 AM 71.1 °F - 66.9 °F 87% 29.83 in 10.0 mi ESE 8.1 mph - 0.01 in   Mostly Cloudy
7:53 AM 71.1 °F - 66.9 °F 87% 29.83 in 10.0 mi ESE 9.2 mph - 0.00 in Rain Light Rain
8:53 AM 73.9 °F - 66.9 °F 79% 29.82 in 10.0 mi SE 8.1 mph - 0.00 in   Clear
9:53 AM 75.9 °F - 64.9 °F 69% 29.80 in 10.0 mi SSE 10.4 mph - N/A   Clear
10:53 AM 84.0 °F 84.5 °F 62.1 °F 47% 29.79 in 10.0 mi SSW 21.9 mph 31.1 mph N/A   Overcast
11:53 AM 82.9 °F 83.7 °F 62.1 °F 49% 29.79 in 10.0 mi SW 18.4 mph 24.2 mph N/A   Mostly Cloudy
12:53 PM 88.0 °F 90.3 °F 66.0 °F 48% 29.78 in 10.0 mi WSW 16.1 mph - N/A   Partly Cloudy
1:53 PM 91.0 °F 93.0 °F 64.9 °F 42% 29.78 in 10.0 mi WNW 16.1 mph - N/A   Clear
2:53 PM 91.9 °F 93.3 °F 64.0 °F 39% 29.77 in 10.0 mi WNW 12.7 mph - N/A   Clear
3:53 PM 91.9 °F 94.1 °F 64.9 °F 41% 29.76 in 10.0 mi Variable 4.6 mph 17.3 mph N/A   Clear
4:53 PM 91.9 °F 92.9 °F 63.0 °F 38% 29.76 in 10.0 mi Calm Calm - N/A   Clear
5:53 PM 91.9 °F 92.5 °F 62.1 °F 37% 29.75 in 10.0 mi Calm Calm - N/A   Clear
6:53 PM 90.0 °F 91.3 °F 64.0 °F 42% 29.74 in 10.0 mi SW 5.8 mph - N/A   Clear
7:53 PM 86.0 °F 88.8 °F 66.9 °F 53% 29.75 in 10.0 mi SSE 4.6 mph - N/A   Clear
8:53 PM 82.9 °F 85.0 °F 66.0 °F 56% 29.76 in 10.0 mi SSW 3.5 mph - N/A   Clear
9:53 PM 79.0 °F - 66.9 °F 66% 29.79 in 10.0 mi NNE 6.9 mph - N/A   Clear
10:53 PM 78.1 °F - 68.0 °F 71% 29.80 in 10.0 mi ENE 5.8 mph - N/A   Scattered Clouds